#timestamp,LO_Frequency,Hit,StdDev 
1544706015.6,286047011.9,N
1544706035.5,286047012.4,N
1544706055.3,286047009.6,N
1544706075.2,286047011.9,N
1544706095.9,286047008.4,N
1544706115.7,286047007.7,N
1544706135.6,286047008.9,N
1544706155.4,286047005.2,N
1544706175.2,286047003.0,N
1544706195.1,286047002.0,N
1544706196.0,286047002.0,N
1544706215.8,286047004.6,N
1544706235.7,286047007.9,N
1544706255.5,286047007.9,N
1544706275.3,286047006.6,N
1544706295.2,286047007.4,N
1544706315.9,286047006.2,N
1544706335.7,286047005.6,N
1544706355.6,286047003.9,N
1544706375.4,286047004.0,N
1544706395.3,286047004.3,N
1544706415.1,286047003.5,N
1544706416.0,286047003.5,N
1544706435.8,286047002.5,N
1544706455.7,286047004.2,N
1544706475.5,286047006.0,N
1544706495.3,286047007.0,N
1544706515.2,286047010.4,N
1544706535.0,286047006.2,N
1544706535.9,286047006.2,N
1544706555.8,286047006.9,N
1544706575.6,286047006.8,N
1544706595.4,286047008.7,Y
1544706615.3,286047003.9,P
1544706635.1,286047004.3,P
1544706655.9,286047012.4,P
1544706675.7,286047009.9,N
1544706695.5,286047008.2,N
1544706715.4,286047007.0,N
1544706735.2,286047005.9,N
1544706755.0,286047004.2,N
1544706755.9,286047004.2,N
1544706775.8,286047002.5,N
1544706795.6,286047003.4,N
1544706815.5,286047003.5,N
1544706835.3,286047005.6,N
1544706855.1,286047006.6,N
1544706875.9,286047010.0,Y
1544706895.7,286047003.4,P
1544706915.5,286047001.4,N
1544706935.4,286047002.0,N
1544706955.2,286047002.3,N
1544706975.0,286047001.0,N
1544706976.0,286047001.0,N
1544706995.8,286047000.0,N
1544707015.6,286047001.2,N
1544707035.5,286046999.2,N
1544707055.3,286046995.3,N
1544707075.1,286046993.6,N
1544707095.9,286046994.6,N
1544707115.7,286046992.3,N
1544707135.5,286046992.0,N
1544707155.4,286046990.9,N
1544707175.2,286046994.2,N
1544707195.1,286046992.5,N
1544707196.0,286046992.5,N
1544707215.8,286046993.3,N
1544707235.6,286046998.8,N
1544707255.5,286047000.6,N
1544707275.3,286047002.9,N
1544707295.1,286047006.0,N
1544707315.9,286047003.0,N
1544707335.7,286047008.6,N
1544707355.6,286047006.8,N
1544707375.4,286047006.5,N
1544707395.2,286047005.6,N
1544707415.1,286047003.8,N
1544707416.0,286047003.8,N
1544707435.8,286046998.9,N
1544707455.6,286046996.6,N
1544707475.5,286046998.0,N
1544707495.3,286046993.5,N
1544707515.2,286046992.8,N
1544707535.9,286046994.2,N
1544707555.7,286046993.5,N
1544707575.6,286046994.1,N
1544707595.4,286046998.0,N
1544707615.2,286046994.7,N
1544707635.1,286046993.5,N
1544707636.0,286046993.5,N
1544707655.8,286046996.4,N
1544707675.7,286046997.6,N
1544707695.5,286046995.4,N
1544707715.3,286046996.2,N
1544707735.2,286046997.1,N
1544707755.9,286046997.9,N
1544707775.7,286046996.6,N
1544707795.6,286046994.9,N
1544707815.4,286046997.3,N
1544707835.3,286046998.3,N
1544707855.1,286047000.7,N
1544707856.0,286047000.7,N
1544707875.8,286047004.4,N
1544707895.7,286047005.4,N
1544707915.5,286047002.9,N
1544707935.3,286047004.2,N
1544707955.2,286046999.8,N
1544707975.0,286047005.8,N
1544707975.9,286047005.8,N
1544707995.8,286047003.4,N
1544708015.6,286047005.4,N
1544708035.4,286047003.0,N
1544708055.3,286047001.8,N
1544708075.1,286047002.5,N
1544708095.8,286047000.3,N
1544708115.7,286047001.2,N
1544708135.5,286047003.8,N
1544708155.3,286047003.7,N
1544708175.2,286046999.9,N
1544708195.0,286047002.1,N
1544708195.9,286047002.1,N
1544708215.8,286047000.6,N
1544708235.6,286047000.9,N
1544708255.4,286047000.9,N
1544708275.3,286047000.7,N
1544708295.1,286047001.2,N
1544708315.8,286046997.1,N
1544708335.7,286046999.2,N
1544708355.5,286047001.2,N
1544708375.4,286046997.7,N
1544708395.2,286046995.4,N
1544708415.0,286046997.9,N
1544708415.9,286046997.9,N
1544708435.8,286046997.7,N
1544708455.6,286046997.4,N
1544708475.4,286046996.2,N
1544708495.3,286046993.7,N
1544708515.1,286046993.7,N
1544708535.9,286046993.7,N
1544708555.7,286046995.5,N
1544708575.5,286046994.8,N
1544708595.4,286046996.1,N
1544708615.2,286046996.6,N
1544708635.0,286046995.7,N
1544708636.0,286046995.7,N
1544708655.8,286046997.5,N
1544708675.6,286046996.4,N
1544708695.5,286046991.8,Y
1544708715.3,286046995.4,P
1544708735.1,286046994.6,P
1544708755.9,286046994.6,P
1544708775.7,286046993.7,Y
1544708795.6,286046995.4,P
1544708815.4,286046995.9,P
1544708835.2,286046995.4,P
1544708855.1,286046999.5,N
1544708856.0,286046999.5,N
1544708875.8,286046998.9,N
1544708895.6,286046999.2,N
1544708915.5,286046996.8,N
1544708935.3,286046999.6,N
1544708955.2,286046995.4,N
1544708975.9,286046995.8,N
1544708995.7,286046994.0,Y
1544709015.6,286047001.1,P
1544709035.4,286047003.5,N
1544709055.2,286047008.6,P
1544709075.1,286047008.5,N
1544709076.0,286047008.5,N
1544709095.8,286047013.8,Y
1544709115.7,286047006.3,P
1544709135.5,286047003.4,P
1544709155.3,286047003.7,P
1544709175.2,286047003.5,Y
1544709195.0,286046999.6,P
1544709195.9,286046999.6,N
1544709215.7,286046997.3,N
1544709235.6,286046995.3,N
1544709255.4,286046996.3,N
1544709275.3,286046994.2,N
1544709295.1,286046994.8,N
1544709296.0,286046994.8,N
1544709315.8,286046992.4,N
1544709335.7,286046994.1,N
1544709355.5,286046994.0,N
1544709375.3,286046994.2,N
1544709395.2,286046996.4,N
1544709415.0,286046995.2,N
1544709415.9,286046995.2,N
1544709435.8,286046993.4,N
1544709455.6,286046998.7,N
1544709475.4,286046999.5,N
1544709495.3,286046999.6,N
1544709515.1,286046997.4,N
1544709535.8,286046998.2,N
1544709555.7,286046998.5,N
1544709575.5,286047000.6,N
1544709595.4,286046998.1,N
